Regional Weather Roundup
Issued by NWS

Home | Current Version | Previous Version | Graphics & Text | Print | Product List | Glossary On
Versions: 1 2 3 4 5 6 7 8 9 10 11 12 13 14 15 16 17 18 19 20 21 22 23 24 25 26 27 28 29 30 31 32 33 34 35 36 37 38 39 40 41 42 43 44 45 46 47 48 49 50
723
ASUS43 KLOT 221509
RWRIL

ILLINOIS REGIONAL WEATHER ROUNDUP
NATIONAL WEATHER SERVICE CHICAGO/ROMEOVILLE IL
1000 AM CDT SAT JUL 22 2017

NOTE: "FAIR" INDICATES FEW OR NO CLOUDS BELOW 12,000 FEET WITH NO
SIGNIFICANT WEATHER AND/OR OBSTRUCTIONS TO VISIBILITY.

* THESE STATIONS ARE NOT UNDER NWS QUALITY CONTROL. THEY ALSO MAY NOT
  REPORT WEATHER SUCH AS PRECIPITATION OR FOG.

ILZ001-002-007-009-015-016-024-221600-
NORTHWEST ILLINOIS

CITY           SKY/WX    TMP DP  RH WIND       PRES   REMARKS
MOLINE         MOSUNNY   78  69  73 VRB5      29.80F HX  80
STERLING*      CLOUDY    74  69  85 CALM      29.84S
SAVANNA*       MOSUNNY   74  69  84 NE5       29.82F
$$

ILZ003-004-008-010-011-017-018-221600-
NORTH CENTRAL ILLINOIS

CITY           SKY/WX    TMP DP  RH WIND       PRES   REMARKS
ROCKFORD       CLOUDY    79  68  69 W10       29.85R HX  81
FREEPORT*      CLOUDY    74  68  80 W3        29.85F
ROCHELLE*      PTSUNNY   74  69  83 W10       29.85S
DE KALB*       CLOUDY    74  69  84 W9        29.85R
PERU*          CLOUDY    72  67  85 SW9       29.84R
$$

ILZ005-006-012>014-019>023-221600-
NORTHEAST ILLINOIS

CITY           SKY/WX    TMP DP  RH WIND       PRES   REMARKS
CHICAGO-OHARE  CLOUDY    75  68  78 W12       29.84R
CHICAGO-MIDWAY CLOUDY    77  69  76 NW7       29.83R
AURORA         CLOUDY    74  69  85 N8        29.84R
LANSING*       CLOUDY    74  66  75 SW3       29.82S
JOLIET*        CLOUDY    75  71  86 NW6       29.84R
WAUKEGAN       CLOUDY    74  70  87 CALM      29.84R
DUPAGE AIRPORT CLOUDY    73  69  87 NW10      29.85R
WHEELING       CLOUDY    75  71  87 W6        29.85R
MORRIS*        CLOUDY    74  69  85 E3        29.82R
ROMEOVILLE*    CLOUDY    74  67  79 N13G18    29.85R
NORTHERLY ISL    N/A     75  69  81 CALM        N/A
$$

LMZ740>746-221600-
SOUTHERN LAKE MICHIGAN

STATION/POSITION SKY/WX   TEMP    WIND        PRES    VSBY  WAVE
                          AIR SEA DIR/SP/G                  HT/PER
                          (F)     (DEG/KT/KT) (MB)    (MI)  (FT/S)
SOUTHERN BUOY              71 70  340/  6/  8 1009.0          2/ 5
WILMETTE HARBOR            72 72  330/  2/  2   N/A           1
HARRISON CRIB              73      40/  6/  6   N/A
BURNHAM HARBOR             74                   N/A
CALUMET HARBOR             75     170/  3/  4 1008.8R
BURNS HARBOR               75     240/  3/  5 1010.5R
MICHIGAN CITY              74     130/  2/  2   N/A
MICHIGAN CITY 6N           74 74  330/  4/  6   N/A           1
ST. JOSEPH                 74 74  280/  4/  6 1009.4          2/ 4
$$

ILZ025>027-034>036-040-047-049-050-058-095>099-221600-
WEST-CENTRAL ILLINOIS

CITY           SKY/WX    TMP DP  RH WIND       PRES   REMARKS
QUINCY         CLOUDY    78  69  73 SE16      29.85F HX  80
GALESBURG*     CLOUDY    71  68  89 S9        29.82F
MACOMB*        PTSUNNY   72  69  90 S13G18    29.84F
JACKSONVILLE*  CLOUDY    73  69  87 E9        29.87F
PITTSFIELD*    MOSUNNY   79  70  74 S10       29.89F HX  81
$$

ILZ028>032-037-038-041>044-048-051>054-059>061-221600-
CENTRAL ILLINOIS

CITY           SKY/WX    TMP DP  RH WIND       PRES   REMARKS
PONTIAC        CLOUDY    73  71  93 S10       29.82R
BLOOMINGTON    CLOUDY    69  68  96 S18       29.84F
DECATUR        LGT RAIN  71  69  93 S10       29.90F
PEORIA         CLOUDY    72  70  93 S13       29.79F
LACON*         CLOUDY    72  69  91 SW7       29.80S
LINCOLN*       CLOUDY    71  69  95 S10       29.85F
SPRINGFIELD    CLOUDY    71  69  93 NE7       29.87F
TAYLORVILLE    LGT RAIN  70  69  98 SE10      29.87F
$$

ILZ033-039-045-046-055>057-062-063-221600-
EAST-CENTRAL ILLINOIS

CITY           SKY/WX    TMP DP  RH WIND       PRES   REMARKS
CHAMPAIGN      RAIN      71  69  93 S9        29.90F FOG
RANTOUL*       LGT RAIN  72  71  98 S15G22    29.83F
MATTOON        PTSUNNY   78  70  76 N10       29.98R HX  80
PARIS*         CLOUDY    77  70  80 N6        29.95F
$$

ILZ079-100>102-221600-
SOUTHWEST ILLINOIS

CITY           SKY/WX    TMP DP  RH WIND       PRES   REMARKS
ALTON          MOSUNNY   79  68  69 NE17G29   29.96F HX  81
BELLEVILLE     MOSUNNY   88  75  66 N18G30    29.96R HX  97
CAHOKIA*       CLOUDY    89  72  56 N15       29.93R HX  96
SPARTA*        SUNNY     90  74  60 W5        29.95R HX  99
$$

ILZ064>066-069>071-074>076-080>082-084>086-088>090-092>094-221600-
SOUTH-CENTRAL ILLINOIS

CITY           SKY/WX    TMP DP  RH WIND       PRES   REMARKS
CARBONDALE     SUNNY     88  78  72 W7        29.94R HX 101
CAIRO*         SUNNY     88  76  69 W7        29.96R HX  99
EFFINGHAM*     SUNNY     82  70  66 NW17G23   29.99S HX  86
MARION         SUNNY     90  77  66 SW9       29.95R HX 102
MT. VERNON     MOSUNNY   91  76  61 W10       29.95R HX 103
CENTRALIA*     PTSUNNY   90  75  62 NW14G21   29.95R HX 100
SALEM*         PTSUNNY   88  73  61 NW13G18   29.96R HX  96
METROPOLIS*    SUNNY     89  78  69 W6        29.97R HX 103
$$

ILZ067-068-072-073-078-083-087-091-221600-
SOUTHEAST ILLINOIS

CITY           SKY/WX    TMP DP  RH WIND       PRES   REMARKS
LAWRENCEVILLE  MOSUNNY   90  76  63 W14       29.94R HX 101
FLORA*         PTSUNNY   90  75  61 NW13G24   29.94R HX 100
FAIRFIELD*     SUNNY     90  77  66 W3        29.93R HX 102
HARRISBURG*    SUNNY     90  78  68 W7        29.95R HX 104
ROBINSON*      PTSUNNY   84  76  76 NW14G21   29.95R HX  93
CARMI*         SUNNY     88  79  76 W10       29.94R HX 102
$$

ABBREVIATIONS USED IN REMARKS
   TC - TEMPERATURE IN CELSIUS
  WCI - WIND CHILL INDEX
   HX - HEAT INDEX
  VSB - VISIBILITY
$$





USA.gov is the U.S. government's official web portal to all federal, state and local government web resources and services.